Rexburg, ID

4:24 AM MDT on July 23, 2017 (GMT -0600)
Rexburg-Madison County

Weather History for KRXE - July, 2013

Change the Weather History Date:

Thursday, July 11, 2013

  Actual Average Record
Temperature  
Mean Temperature 71 °F 66 °F  
Max Temperature 84 °F 83 °F 96 °F (2002)
Min Temperature 57 °F 50 °F 44 °F (2016)
Degree Days  
Heating Degree Days 0 1  
Month to date heating degree days 0 19  
Since 1 June heating degree days 117 191  
Since 1 July heating degree days 0 19  
Cooling Degree Days 6 2  
Month to date cooling degree days 85 17  
Year to date cooling degree days 146 39  
Since 1 June cooling degree days 144 35  
Growing Degree Days 20 (Base 50)    
Moisture  
Dew Point 45 °F    
Average Humidity 55    
Maximum Humidity 86    
Minimum Humidity 24    
Precipitation  
Precipitation 0.02 in 0.03 in 0.08 in (1987)
Month to date precipitation 0.02 0.35  
Year to date precipitation 4.50 7.59  
Sea Level Pressure  
Sea Level Pressure 29.86 in    
Wind  
Wind Speed 7 mph (SSW)    
Max Wind Speed 20 mph    
Max Gust Speed 29 mph    
Visibility 10 miles    
Events Rain    
T = Trace of Precipitation, MM = Missing Value Source: NWS Daily Summary

Daily Weather History Graph

Daily Weather History Graph

Search for Another Location

Airport or City:

Trip Planner

Search our weather history database for the weather conditions in past years. The results will help you decide how hot, cold, wet, or windy it might be!

Date:

Astronomy

Jul. 11, 2013 Rise Set
Actual Time 5:55 AM MDT 9:09 PM MDT
Civil Twilight 5:20 AM MDT 9:44 PM MDT
Nautical Twilight 4:35 AM MDT 10:29 PM MDT
Astronomical Twilight 3:39 AM MDT 11:25 PM MDT
Moon 9:26 AM MDT (7/11) 10:42 PM MDT (7/11)
Length of Visible Light 16h 23m
Length of Day
15h 13m
Waxing Crescent, 11% of the Moon is Illuminated
Jul 11
Waxing Crescent
Jul 15
First Quarter
Jul 22
Full
Jul 29
Last Quarter
Aug 6
New

Hourly Weather History & Observations

Time (MDT) Temp. Dew Point Humidity Pressure Visibility Wind Dir Wind Speed Gust Speed Precip Events Conditions
12:53 AM 68.0 °F 41.0 °F 37% 29.80 in 10.0 mi SSW 8.1 mph - N/A   Clear
1:53 AM 71.1 °F 37.9 °F 30% 29.78 in 10.0 mi South 8.1 mph - N/A   Clear
2:53 AM 70.0 °F 37.9 °F 31% 29.77 in 10.0 mi South 6.9 mph - N/A   Clear
3:53 AM 71.1 °F 37.0 °F 29% 29.77 in 10.0 mi South 8.1 mph - N/A   Clear
4:53 AM 69.1 °F 37.9 °F 32% 29.78 in 10.0 mi South 9.2 mph - N/A   Clear
5:53 AM 66.9 °F 37.9 °F 34% 29.78 in 10.0 mi SSW 4.6 mph - N/A   Clear
6:53 AM 62.1 °F 46.9 °F 58% 29.81 in 10.0 mi North 3.5 mph - N/A   Clear
7:53 AM 68.0 °F 45.0 °F 43% 29.82 in 10.0 mi Calm Calm - N/A   Clear
8:53 AM 73.0 °F 39.9 °F 30% 29.82 in 10.0 mi SSW 10.4 mph 18.4 mph N/A   Clear
9:53 AM 73.9 °F 41.0 °F 30% 29.83 in 10.0 mi South 10.4 mph - N/A   Clear
10:53 AM 79.0 °F 41.0 °F 26% 29.84 in 10.0 mi SSW 11.5 mph - N/A   Clear
11:53 AM 75.9 °F 48.9 °F 38% 29.86 in 10.0 mi SW 9.2 mph - N/A   Clear
12:53 PM 82.0 °F 42.1 °F 24% 29.86 in 10.0 mi WSW 15.0 mph - N/A   Clear
1:53 PM 81.0 °F 46.9 °F 30% 29.86 in 10.0 mi SSW 11.5 mph - N/A   Clear
2:53 PM 80.1 °F 45.0 °F 29% 29.87 in 10.0 mi WSW 12.7 mph 28.8 mph N/A   Mostly Cloudy
3:53 PM 73.9 °F 45.0 °F 35% 29.89 in 10.0 mi WSW 12.7 mph 19.6 mph N/A   Partly Cloudy
4:53 PM 71.1 °F 46.9 °F 42% 29.94 in 10.0 mi Variable 3.5 mph - 0.00 in Rain Light Rain
5:53 PM 66.9 °F 50.0 °F 54% 29.96 in 10.0 mi WSW 3.5 mph - 0.00 in   Overcast
6:53 PM 64.0 °F 53.1 °F 67% 29.99 in 10.0 mi SW 5.8 mph - 0.02 in Rain Light Rain
7:53 PM 63.0 °F 52.0 °F 67% 29.97 in 10.0 mi SSE 11.5 mph - 0.00 in Rain Light Rain
8:53 PM 62.1 °F 52.0 °F 70% 29.94 in 10.0 mi Calm Calm - 0.00 in Rain Light Rain
9:53 PM 61.0 °F 53.1 °F 75% 29.92 in 10.0 mi Calm Calm - 0.00 in   Overcast
10:53 PM 59.0 °F 54.0 °F 83% 29.92 in 10.0 mi NNW 3.5 mph - N/A   Clear
11:53 PM 57.9 °F 54.0 °F 87% 29.93 in 10.0 mi NNE 3.5 mph - N/A   Clear